User: anonymous
Location: Laverne
(36.7100°N, 99.8930°W)
Time: 10:34:58
(UTC-05:00)
Language:

Iridium 32 - Orbit

View from above orbital plane
View from above orbital plane
View from above satellite
View from above satellite

Ground track
Ground track

The orbit data is extracted from the following two-line orbital elements,

1 24945U 97051B   14260.25156938  .00000146  00000-0  45048-4 0  9961
2 24945 086.4009 346.7576 0002394 111.5457 248.5994 14.34215824890522
Epoch (UTC): 17 September 2014 06:02:15
Eccentricity: 0.0002394
inclination: 86.4009°
perigee height: 776 km
apogee height: 779 km
right ascension of ascending node: 346.7576°
argument of perigee: 111.5457°
revolutions per day: 14.34215824
mean anomaly at epoch: 248.5994°
orbit number at epoch: 89052

The dashed part of the orbit path shows where the satellite is in the earth's shadow,  

DLR